Tracking 29892 objects as of 21-Nov-2024
HD Live streaming from Space Station
objects crossing your sky now

STARLINK-4553

Track STARLINK-4553 now!
10-day predictions
STARLINK-4553 is classified as:


NORAD ID: 53577
Int'l Code: 2022-101BC
Perigee: 546.0 km
Apogee: 547.7 km
Inclination: 53.2 °
Period: 95.4 minutes
Semi major axis: 6917 km
RCS: Unknown
Launch date: August 19, 2022
Source: United States (US)
Launch site: AIR FORCE EASTERN TEST RANGE (AFETR)
Your satellite tracking list
Your tracking list is empty




NASA's NSSDC Master Catalog

Two Line Element Set (TLE):
1 53577U 22101BC  24325.57604377  .00000940  00000-0  77123-4 0  9995
2 53577  53.2154  22.2497 0001274  83.1184 276.9953 15.08844753125693
Source of the keplerian elements: AFSPC